Weather History for KDAN - December, 2013

Change the Weather History Date:

Tuesday, December 31, 2013

  Actual Average Record
Temperature  
Mean Temperature 40 °F 38 °F  
Max Temperature 50 °F 47 °F 76 °F (1984)
Min Temperature 29 °F 29 °F 14 °F (1961)
Degree Days  
Heating Degree Days 25 27  
Month to date heating degree days 648 773  
Since 1 July heating degree days 1396 1482  
Cooling Degree Days 0 0  
Month to date cooling degree days 3 0  
Year to date cooling degree days 1416 1439  
Moisture  
Dew Point 25 °F    
Average Humidity 62    
Maximum Humidity 92    
Minimum Humidity 32    
Precipitation  
Precipitation T in 0.07 in 0.94 in (1952)
Month to date precipitation 4.23 3.27  
Year to date precipitation 50.78 44.41  
Snow  
Snow 0.00 in - - ()
Month to date snowfall 0.0  
Since 1 July snowfall T  
Snow Depth 0.00 in    
Sea Level Pressure  
Sea Level Pressure 30.23 in    
Wind  
Wind Speed 5 mph (West)    
Max Wind Speed 21 mph    
Max Gust Speed 28 mph    
Visibility 10 miles    
Events      
T = Trace of Precipitation, MM = Missing Value Source: NWS Daily Summary

Daily Weather History Graph

Daily Weather History Graph

Search for Another Location

Airport or City:

Trip Planner

Search our weather history database for the weather conditions in past years. The results will help you decide how hot, cold, wet, or windy it might be!

Date:

Astronomy

Dec. 31, 2013 Rise Set
Actual Time 7:29 AM EST 5:11 PM EST
Civil Twilight 7:00 AM EST 5:40 PM EST
Nautical Twilight 6:28 AM EST 6:12 PM EST
Astronomical Twilight 5:56 AM EST 6:44 PM EST
Moon 6:21 AM EST (12/31) 4:44 PM EST (12/31)
Length of Visible Light 10h 39m
Length of Day
9h 42m
Waning Crescent, 1% of the Moon is Illuminated
Dec 31
Waning Crescent
Jan 1
New
Jan 7
First Quarter
Jan 15
Full
Jan 24
Last Quarter

Hourly Weather History & Observations

Time (EST) Temp. Windchill Dew Point Humidity Pressure Visibility Wind Dir Wind Speed Gust Speed Precip Events Conditions
12:53 AM 41.0 °F 39.0 °F 30.0 °F 65% 30.12 in 10.0 mi NNE 3.5 mph - N/A   Overcast
1:53 AM 39.9 °F 36.7 °F 28.9 °F 65% 30.13 in 10.0 mi NNE 4.6 mph - 0.00 in   Overcast
2:53 AM 37.9 °F - 32.0 °F 79% 30.14 in 10.0 mi Calm Calm - N/A   Overcast
3:53 AM 37.9 °F - 32.0 °F 79% 30.14 in 10.0 mi Calm Calm - N/A   Overcast
4:53 AM 37.0 °F - 32.0 °F 82% 30.14 in 10.0 mi Calm Calm - N/A   Overcast
5:53 AM 33.1 °F - 30.0 °F 89% 30.16 in 10.0 mi Calm Calm - N/A   Partly Cloudy
6:53 AM 32.0 °F 28.7 °F 28.0 °F 85% 30.19 in 10.0 mi West 3.5 mph - N/A   Clear
7:53 AM 30.9 °F 27.5 °F 28.0 °F 89% 30.21 in 10.0 mi SW 3.5 mph - N/A   Clear
8:53 AM 34.0 °F 31.0 °F 30.9 °F 89% 30.23 in 10.0 mi SW 3.5 mph - N/A   Clear
9:53 AM 39.9 °F 36.7 °F 32.0 °F 73% 30.24 in 10.0 mi Variable 4.6 mph - N/A   Clear
10:53 AM 45.0 °F 40.1 °F 26.1 °F 48% 30.26 in 10.0 mi WSW 9.2 mph - N/A   Clear
11:53 AM 46.0 °F 40.6 °F 25.0 °F 44% 30.24 in 10.0 mi WSW 11.5 mph - N/A   Clear
12:53 PM 48.9 °F - 21.9 °F 35% 30.22 in 10.0 mi West 11.5 mph 23.0 mph N/A   Clear
1:53 PM 50.0 °F - 21.0 °F 32% 30.21 in 10.0 mi WNW 13.8 mph 20.7 mph N/A   Clear
2:53 PM 50.0 °F - 21.9 °F 33% 30.21 in 10.0 mi West 12.7 mph 18.4 mph N/A   Clear
3:53 PM 50.0 °F - 24.1 °F 36% 30.22 in 10.0 mi West 10.4 mph 16.1 mph N/A   Clear
4:53 PM 46.0 °F 44.8 °F 24.1 °F 42% 30.25 in 10.0 mi West 3.5 mph - N/A   Clear
5:53 PM 43.0 °F 40.3 °F 21.9 °F 43% 30.26 in 10.0 mi West 4.6 mph - N/A   Clear
6:53 PM 43.0 °F 40.3 °F 17.1 °F 35% 30.30 in 10.0 mi WNW 4.6 mph - N/A   Clear
7:53 PM 36.0 °F 33.3 °F 21.0 °F 55% 30.32 in 10.0 mi WSW 3.5 mph - N/A   Clear
8:53 PM 39.9 °F 36.7 °F 18.0 °F 41% 30.33 in 10.0 mi WNW 4.6 mph - N/A   Clear
9:53 PM 34.0 °F 29.8 °F 21.0 °F 59% 30.35 in 10.0 mi West 4.6 mph - N/A   Clear
10:53 PM 28.9 °F - 19.9 °F 69% 30.35 in 10.0 mi Calm Calm - N/A   Clear
11:53 PM 30.0 °F 26.5 °F 19.9 °F 66% 30.35 in 10.0 mi SW 3.5 mph - N/A   Clear